This demonstration page uses our WeatherBlox Daily Observations layout. Learn more.

Left ArrowRight Arrow

41.86663, -103.66717

Hourly Observations for January 27, 2016

Temp ( °F °C ) Dew Point ( °F °C ) Humidity (%) Winds ( mph kmh ) Pressure ( in mb ) Visibility ( mi km ) Precip ( " mm )
12:53 am 00:53 Clear 24 -4.4 17 -8.3 75 75 WNW 8 13 30.24 1024 10 16 N/A
1:53 am 01:53 Clear 24 -4.4 17 -8.3 75 75 NW 7 11 30.23 1024 10 16 N/A
2:53 am 02:53 Clear 24 -4.4 17 -8.3 75 75 NW 7 11 30.22 1023 10 16 N/A
3:53 am 03:53 Clear 25 -3.9 17 -8.3 72 72 NW 7 11 30.22 1023 10 16 N/A
4:53 am 04:53 Clear 24 -4.4 16 -8.9 71 71 NNW 5 7 30.22 1023 10 16 N/A
5:53 am 05:53 Clear 24 -4.4 17 -8.3 75 75 NNW 7 11 30.22 1023 10 16 N/A
6:53 am 06:53 Partly Cloudy 28 -2.2 18 -7.8 66 66 NW 8 13 30.22 1024 10 16 N/A
7:53 am 07:53 Mostly Sunny 30 -1.1 19 -7.2 64 64 NW 9 15 30.25 1025 10 16 N/A
8:53 am 08:53 Sunny 32 undefined 20 -6.7 61 61 WNW 13 20 30.27 1025 10 16 N/A
9:53 am 09:53 Sunny 39 3.9 21 -6.1 48 48 WNW 14 22 30.27 1025 10 16 N/A
10:53 am 10:53 Sunny 44 6.7 22 -5.6 41 41 W 15 24 30.26 1025 10 16 N/A
11:53 am 11:53 Sunny 48 8.9 24 -4.4 39 39 WNW 16 26 30.22 1024 10 16 N/A
12:53 pm 12:53 Sunny 50 10 26 -3.3 39 39 WNW 14 22 30.19 1022 10 16 N/A
1:53 pm 13:53 Sunny 52 11.1 28 -2.2 40 40 NW 16 26 30.16 1022 10 16 N/A
2:53 pm 14:53 Sunny 51 10.6 25 -3.9 36 36 W 15 24 30.15 1021 10 16 N/A
3:53 pm 15:53 Sunny 48 8.9 26 -3.3 42 42 W 12 19 30.16 1021 10 16 N/A
4:53 pm 16:53 Sunny 44 6.7 23 -5 43 43 WNW 15 24 30.19 1022 10 16 N/A
5:53 pm 17:53 Clear 40 4.4 24 -4.4 53 53 WNW 12 19 30.19 1023 10 16 N/A
6:53 pm 18:53 Clear 37 2.8 24 -4.4 59 59 WNW 10 17 30.21 1023 10 16 N/A
7:53 pm 19:53 Clear 35 1.7 24 -4.4 64 64 WNW 9 15 30.23 1024 10 16 N/A
8:53 pm 20:53 Clear 33 0.6 23 -5 66 66 NW 5 7 30.23 1024 10 16 N/A
9:53 pm 21:53 Clear 29 -1.7 22 -5.6 75 75 NW 3 6 30.22 1024 10 16 N/A
10:53 pm 22:53 Clear 29 -1.7 23 -5 78 78 NW 6 9 30.21 1023 10 16 N/A
11:53 pm 23:53 Clear 29 -1.7 23 -5 78 78 NW 6 9 30.19 1022 10 16 N/A

Powered by AerisWeather